| time (UTC) | temp C | wind direction | speed KPH | gust KPH | rain 1hr cm | rain 24hr cm | rain mn cm | humidity % | barometer mb |
| 20260507142636 | 6 | 42 | 3.2 | 3.2 | 0.00 | 0.00 | 0.00 | 45 | 1018.8 |
| 20260507142133 | 7 | 313 | 8.0 | 6.4 | 0.00 | 0.00 | 0.00 | 44 | 1018.8 |
| 20260507141629 | 6 | 77 | 1.6 | 1.6 | 0.00 | 0.00 | 0.00 | 48 | 1018.8 |
| 20260507141126 | 6 | 107 | 1.6 | 1.6 | 0.00 | 0.00 | 0.00 | 48 | 1018.9 |
| 20260507140622 | 6 | 207 | 9.7 | 11.3 | 0.00 | 0.00 | 0.00 | 52 | 1018.9 |
| 20260507140120 | 6 | 328 | 4.8 | 4.8 | 0.00 | 0.00 | 0.00 | 49 | 1018.7 |
| 20260507135617 | 6 | 162 | 3.2 | 3.2 | 0.00 | 0.00 | 0.00 | 49 | 1018.8 |
| 20260507135115 | 7 | 96 | 1.6 | 1.6 | 0.00 | 0.00 | 0.00 | 51 | 1018.4 |
| 20260507134611 | 7 | 194 | 4.8 | 4.8 | 0.00 | 0.00 | 0.00 | 49 | 1018.7 |
| 20260507134107 | 7 | 96 | 0.0 | 1.6 | 0.00 | 0.00 | 0.00 | 49 | 1018.6 |
| 20260507133603 | 7 | 41 | 3.2 | 4.8 | 0.00 | 0.00 | 0.00 | 49 | 1018.6 |
| 20260507133101 | 6 | 80 | 1.6 | 1.6 | 0.00 | 0.00 | 0.00 | 50 | 1018.4 |
| 20260507132557 | 7 | 42 | 4.8 | 4.8 | 0.00 | 0.00 | 0.00 | 52 | 1018.4 |
| 20260507132054 | 7 | 75 | 1.6 | 1.6 | 0.00 | 0.00 | 0.00 | 47 | 1018.4 |
| 20260507131551 | 6 | 283 | 3.2 | 3.2 | 0.00 | 0.00 | 0.00 | 51 | 1018.4 |
| 20260507131048 | 7 | 187 | 4.8 | 4.8 | 0.00 | 0.00 | 0.00 | 52 | 1018.7 |
| 20260507130544 | 6 | 92 | 0.0 | 0.0 | 0.00 | 0.00 | 0.00 | 52 | 1018.8 |
| 20260507130043 | 7 | 215 | 4.8 | 4.8 | 0.00 | 0.00 | 0.00 | 51 | 1018.4 |
| 20260507125541 | 7 | 166 | 3.2 | 3.2 | 0.00 | 0.00 | 0.00 | 50 | 1018.7 |
| 20260507125038 | 7 | 97 | 4.8 | 4.8 | 0.00 | 0.00 | 0.00 | 50 | 1018.3 |
| 20260507124534 | 6 | 90 | 1.6 | 1.6 | 0.00 | 0.00 | 0.00 | 52 | 1018.4 |
| 20260507124032 | 6 | 124 | 3.2 | 3.2 | 0.00 | 0.00 | 0.00 | 55 | 1018.3 |
| 20260507123530 | 6 | 120 | 1.6 | 1.6 | 0.00 | 0.00 | 0.00 | 60 | 1018.3 |
| 20260507123027 | 5 | 187 | 4.8 | 4.8 | 0.00 | 0.00 | 0.00 | 62 | 1018.3 |
| 20260507122522 | 5 | 170 | 4.8 | 4.8 | 0.00 | 0.00 | 0.00 | 63 | 1018.3 |
| 20260507122018 | 5 | 141 | 3.2 | 3.2 | 0.00 | 0.00 | 0.00 | 64 | 1018.4 |
| 20260507121514 | 5 | 116 | 1.6 | 1.6 | 0.00 | 0.00 | 0.00 | 64 | 1018.4 |
| 20260507121010 | 5 | 77 | 0.0 | 0.0 | 0.00 | 0.00 | 0.00 | 63 | 1018.1 |
| 20260507120506 | 4 | 76 | 0.0 | 0.0 | 0.00 | 0.00 | 0.00 | 68 | 1018.2 |
| 20260507120004 | 3 | 76 | 0.0 | 0.0 | 0.00 | 0.00 | 0.00 | 68 | 1018.2 |
| 20260507115459 | 4 | 76 | 1.6 | 1.6 | 0.00 | 0.00 | 0.00 | 69 | 1018.3 |
| 20260507114955 | 5 | 76 | 0.0 | 0.0 | 0.00 | 0.00 | 0.00 | 65 | 1018.6 |
| 20260507114451 | 3 | 77 | 0.0 | 0.0 | 0.00 | 0.00 | 0.00 | 70 | 1018.2 |
| 20260507113949 | 2 | 76 | 0.0 | 0.0 | 0.00 | 0.00 | 0.00 | 75 | 1018.3 |
| 20260507113446 | 1 | 76 | 0.0 | 0.0 | 0.00 | 0.00 | 0.00 | 76 | 1018.2 |
| 20260507112943 | 1 | 76 | 0.0 | 0.0 | 0.00 | 0.00 | 0.00 | 76 | 1018.0 |
| 20260507112441 | 0 | 76 | 0.0 | 0.0 | 0.00 | 0.00 | 0.00 | 77 | 1018.0 |
| 20260507111937 | 0 | 76 | 0.0 | 0.0 | 0.00 | 0.00 | 0.00 | 84 | 1017.8 |
| 20260507111435 | -1 | 64 | 0.0 | 0.0 | 0.00 | 0.00 | 0.00 | 85 | 1018.0 |
| 20260507110931 | 0 | 84 | 1.6 | 1.6 | 0.00 | 0.00 | 0.00 | 85 | 1017.7 |
| 20260507110427 | -1 | 87 | 1.6 | 0.0 | 0.00 | 0.00 | 0.00 | 88 | 1017.8 |
| 20260507105924 | -2 | 77 | 0.0 | 0.0 | 0.00 | 0.00 | 0.00 | 86 | 1017.8 |
| 20260507105421 | -1 | 63 | 0.0 | 0.0 | 0.00 | 0.00 | 0.00 | 86 | 1017.7 |
| 20260507104917 | -2 | 53 | 1.6 | 1.6 | 0.00 | 0.00 | 0.00 | 87 | 1017.5 |
| 20260507104414 | -2 | 56 | 3.2 | 3.2 | 0.00 | 0.00 | 0.00 | 87 | 1017.8 |
| 20260507103910 | -2 | 55 | 3.2 | 3.2 | 0.00 | 0.00 | 0.00 | 86 | 1018.0 |
| 20260507103407 | -1 | 57 | 3.2 | 3.2 | 0.00 | 0.00 | 0.00 | 85 | 1017.5 |
| 20260507102903 | -1 | 64 | 3.2 | 3.2 | 0.00 | 0.00 | 0.00 | 85 | 1017.6 |
| 20260507102400 | -1 | 64 | 3.2 | 3.2 | 0.00 | 0.00 | 0.00 | 85 | 1017.6 |
| 20260507101856 | -1 | 66 | 3.2 | 3.2 | 0.00 | 0.00 | 0.00 | 86 | 1017.6 |
| 20260507101356 | -1 | 76 | 1.6 | 1.6 | 0.00 | 0.00 | 0.00 | 87 | 1017.5 |
| 20260507100854 | -1 | 76 | 0.0 | 0.0 | 0.00 | 0.00 | 0.00 | 86 | 1017.5 |
| 20260507100351 | 0 | 76 | 0.0 | 0.0 | 0.00 | 0.00 | 0.00 | 85 | 1017.6 |
| 20260507095849 | 0 | 76 | 0.0 | 0.0 | 0.00 | 0.00 | 0.00 | 83 | 1017.5 |
| 20260507095345 | 0 | 76 | 0.0 | 0.0 | 0.00 | 0.00 | 0.00 | 83 | 1017.7 |
| 20260507094843 | 0 | 76 | 0.0 | 0.0 | 0.00 | 0.00 | 0.00 | 82 | 1017.5 |
| 20260507094339 | 0 | 76 | 0.0 | 0.0 | 0.00 | 0.00 | 0.00 | 81 | 1017.6 |
| 20260507093836 | 0 | 77 | 1.6 | 1.6 | 0.00 | 0.00 | 0.00 | 80 | 1017.6 |
| 20260507093335 | 1 | 79 | 0.0 | 0.0 | 0.00 | 0.00 | 0.00 | 79 | 1017.7 |
| 20260507092832 | 1 | 78 | 0.0 | 0.0 | 0.00 | 0.00 | 0.00 | 81 | 1017.6 |
| 20260507092328 | 1 | 77 | 0.0 | 0.0 | 0.00 | 0.00 | 0.00 | 77 | 1017.5 |
| 20260507091825 | 1 | 77 | 0.0 | 0.0 | 0.00 | 0.00 | 0.00 | 78 | 1017.7 |
| 20260507091322 | 1 | 77 | 1.6 | 1.6 | 0.00 | 0.00 | 0.00 | 78 | 1017.7 |
| 20260507090817 | 1 | 77 | 0.0 | 0.0 | 0.00 | 0.00 | 0.00 | 76 | 1017.7 |
| 20260507090314 | 1 | 77 | 0.0 | 0.0 | 0.00 | 0.00 | 0.00 | 78 | 1017.9 |
| 20260507085811 | 2 | 77 | 0.0 | 0.0 | 0.00 | 0.00 | 0.00 | 76 | 1017.8 |
| 20260507085308 | 2 | 77 | 0.0 | 0.0 | 0.00 | 0.00 | 0.00 | 74 | 1017.6 |
| 20260507084805 | 2 | 77 | 0.0 | 0.0 | 0.00 | 0.00 | 0.00 | 72 | 1017.8 |
| 20260507084301 | 2 | 76 | 0.0 | 0.0 | 0.00 | 0.00 | 0.00 | 70 | 1017.8 |
| 20260507083759 | 2 | 73 | 1.6 | 1.6 | 0.00 | 0.00 | 0.00 | 72 | 1017.8 |
| 20260507083255 | 2 | 81 | 1.6 | 1.6 | 0.00 | 0.00 | 0.00 | 72 | 1017.8 |
| 20260507082751 | 2 | 80 | 1.6 | 1.6 | 0.00 | 0.00 | 0.00 | 75 | 1017.7 |
| 20260507082247 | 2 | 91 | 0.0 | 0.0 | 0.00 | 0.00 | 0.00 | 74 | 1017.8 |
| 20260507081744 | 2 | 91 | 0.0 | 0.0 | 0.00 | 0.00 | 0.00 | 73 | 1018.0 |
| 20260507081240 | 2 | 92 | 0.0 | 0.0 | 0.00 | 0.00 | 0.00 | 72 | 1017.8 |
| 20260507080737 | 2 | 92 | 0.0 | 0.0 | 0.00 | 0.00 | 0.00 | 72 | 1017.9 |
| 20260507080233 | 3 | 92 | 0.0 | 0.0 | 0.00 | 0.00 | 0.00 | 71 | 1017.8 |
| 20260507075729 | 3 | 86 | 1.6 | 0.0 | 0.00 | 0.00 | 0.00 | 70 | 1017.9 |
| 20260507075225 | 3 | 78 | 0.0 | 0.0 | 0.00 | 0.00 | 0.00 | 69 | 1017.9 |
| 20260507074721 | 3 | 78 | 0.0 | 0.0 | 0.00 | 0.00 | 0.00 | 70 | 1017.8 |
| 20260507074220 | 3 | 73 | 0.0 | 0.0 | 0.00 | 0.00 | 0.00 | 69 | 1017.7 |
| 20260507073716 | 3 | 74 | 1.6 | 1.6 | 0.00 | 0.00 | 0.00 | 73 | 1018.0 |
| 20260507073213 | 3 | 73 | 1.6 | 1.6 | 0.00 | 0.00 | 0.00 | 72 | 1018.0 |
| 20260507072711 | 3 | 76 | 1.6 | 1.6 | 0.00 | 0.00 | 0.00 | 71 | 1017.9 |
| 20260507072207 | 2 | 81 | 1.6 | 1.6 | 0.00 | 0.00 | 0.00 | 76 | 1017.9 |
| 20260507071705 | 2 | 81 | 1.6 | 1.6 | 0.00 | 0.00 | 0.00 | 81 | 1018.1 |
| 20260507071201 | 2 | 82 | 1.6 | 1.6 | 0.00 | 0.00 | 0.00 | 82 | 1018.0 |
| 20260507070659 | 2 | 82 | 1.6 | 1.6 | 0.00 | 0.00 | 0.00 | 79 | 1018.1 |
| 20260507070155 | 2 | 82 | 0.0 | 0.0 | 0.00 | 0.00 | 0.00 | 80 | 1017.9 |
| 20260507065651 | 2 | 82 | 1.6 | 1.6 | 0.00 | 0.00 | 0.00 | 77 | 1017.9 |
| 20260507065148 | 2 | 88 | 1.6 | 1.6 | 0.00 | 0.00 | 0.00 | 77 | 1018.0 |
| 20260507064646 | 3 | 88 | 1.6 | 1.6 | 0.00 | 0.00 | 0.00 | 75 | 1018.0 |
| 20260507064144 | 3 | 88 | 1.6 | 1.6 | 0.00 | 0.00 | 0.00 | 71 | 1018.1 |
| 20260507063642 | 3 | 88 | 0.0 | 1.6 | 0.00 | 0.00 | 0.00 | 71 | 1018.1 |
| 20260507063138 | 3 | 89 | 0.0 | 0.0 | 0.00 | 0.00 | 0.00 | 69 | 1018.3 |
| 20260507062635 | 3 | 89 | 0.0 | 0.0 | 0.00 | 0.00 | 0.00 | 65 | 1018.1 |
| 20260507062133 | 4 | 89 | 0.0 | 0.0 | 0.00 | 0.00 | 0.00 | 68 | 1018.1 |
| 20260507061630 | 4 | 89 | 0.0 | 0.0 | 0.00 | 0.00 | 0.00 | 63 | 1018.3 |
| 20260507061128 | 5 | 88 | 0.0 | 0.0 | 0.00 | 0.00 | 0.00 | 61 | 1018.2 |
| 20260507060626 | 5 | 88 | 0.0 | 0.0 | 0.00 | 0.00 | 0.00 | 63 | 1018.2 |
| 20260507060122 | 5 | 79 | 0.0 | 0.0 | 0.00 | 0.00 | 0.00 | 60 | 1018.6 |
| 20260507055618 | 5 | 76 | 0.0 | 0.0 | 0.00 | 0.00 | 0.00 | 58 | 1018.4 |
| 20260507055114 | 5 | 61 | 3.2 | 1.6 | 0.00 | 0.00 | 0.00 | 60 | 1018.3 |
| 20260507054610 | 5 | 43 | 3.2 | 3.2 | 0.00 | 0.00 | 0.00 | 58 | 1018.7 |
| 20260507054107 | 5 | 55 | 3.2 | 3.2 | 0.00 | 0.00 | 0.00 | 61 | 1018.7 |
| 20260507053605 | 5 | 106 | 1.6 | 1.6 | 0.00 | 0.00 | 0.00 | 60 | 1018.4 |
| 20260507053104 | 5 | 105 | 0.0 | 0.0 | 0.00 | 0.00 | 0.00 | 63 | 1018.4 |
| 20260507052601 | 5 | 328 | 4.8 | 3.2 | 0.00 | 0.00 | 0.00 | 61 | 1018.2 |
| 20260507052057 | 4 | 97 | 1.6 | 1.6 | 0.00 | 0.00 | 0.00 | 64 | 1018.6 |
| 20260507051555 | 3 | 99 | 1.6 | 1.6 | 0.00 | 0.00 | 0.00 | 69 | 1018.6 |
| 20260507051052 | 3 | 73 | 0.0 | 0.0 | 0.00 | 0.00 | 0.00 | 74 | 1018.4 |
| 20260507050549 | 3 | 72 | 0.0 | 0.0 | 0.00 | 0.00 | 0.00 | 76 | 1018.6 |
| 20260507050045 | 3 | 73 | 0.0 | 0.0 | 0.00 | 0.00 | 0.00 | 81 | 1018.2 |
| 20260507045542 | 3 | 97 | 0.0 | 0.0 | 0.00 | 0.00 | 0.00 | 79 | 1018.1 |
| 20260507045039 | 3 | 74 | 1.6 | 1.6 | 0.00 | 0.00 | 0.00 | 80 | 1018.3 |
| 20260507044535 | 3 | 74 | 1.6 | 0.0 | 0.00 | 0.00 | 0.00 | 74 | 1018.2 |
| 20260507044032 | 2 | 73 | 0.0 | 0.0 | 0.00 | 0.00 | 0.00 | 75 | 1018.2 |
| 20260507043528 | 2 | 73 | 0.0 | 0.0 | 0.00 | 0.00 | 0.00 | 78 | 1018.4 |
| 20260507043026 | 2 | 73 | 1.6 | 1.6 | 0.00 | 0.00 | 0.00 | 79 | 1018.1 |
| 20260507042521 | 3 | 73 | 1.6 | 1.6 | 0.00 | 0.00 | 0.00 | 79 | 1018.3 |
| 20260507042017 | 2 | 73 | 0.0 | 0.0 | 0.00 | 0.00 | 0.00 | 75 | 1018.6 |
| 20260507041514 | 2 | 73 | 1.6 | 1.6 | 0.00 | 0.00 | 0.00 | 78 | 1018.6 |
| 20260507041011 | 2 | 73 | 1.6 | 1.6 | 0.00 | 0.00 | 0.00 | 79 | 1018.2 |
| 20260507040507 | 3 | 73 | 1.6 | 1.6 | 0.00 | 0.00 | 0.00 | 78 | 1018.2 |
| 20260507040003 | 3 | 73 | 1.6 | 1.6 | 0.00 | 0.00 | 0.00 | 74 | 1018.3 |
| 20260507035500 | 3 | 73 | 1.6 | 1.6 | 0.00 | 0.00 | 0.00 | 75 | 1018.4 |
| 20260507034956 | 3 | 74 | 1.6 | 0.0 | 0.00 | 0.00 | 0.00 | 73 | 1018.4 |
| 20260507034453 | 3 | 74 | 0.0 | 0.0 | 0.00 | 0.00 | 0.00 | 73 | 1018.4 |
| 20260507033951 | 3 | 73 | 1.6 | 0.0 | 0.00 | 0.00 | 0.00 | 70 | 1018.3 |
| 20260507033449 | 3 | 73 | 0.0 | 0.0 | 0.00 | 0.00 | 0.00 | 72 | 1018.7 |
| 20260507032946 | 3 | 73 | 1.6 | 1.6 | 0.00 | 0.00 | 0.00 | 75 | 1018.7 |
| 20260507032443 | 3 | 73 | 0.0 | 0.0 | 0.00 | 0.00 | 0.00 | 73 | 1018.6 |
| 20260507031939 | 3 | 73 | 1.6 | 0.0 | 0.00 | 0.00 | 0.00 | 74 | 1018.4 |
| 20260507031435 | 4 | 73 | 1.6 | 1.6 | 0.00 | 0.00 | 0.00 | 68 | 1018.6 |
| 20260507030932 | 4 | 72 | 3.2 | 3.2 | 0.00 | 0.00 | 0.00 | 72 | 1018.7 |
| 20260507030429 | 4 | 72 | 3.2 | 3.2 | 0.00 | 0.00 | 0.00 | 71 | 1018.7 |
| 20260507025927 | 4 | 83 | 1.6 | 1.6 | 0.00 | 0.00 | 0.00 | 72 | 1018.4 |
| 20260507025424 | 4 | 84 | 0.0 | 0.0 | 0.00 | 0.00 | 0.00 | 73 | 1018.8 |
| 20260507024921 | 5 | 84 | 0.0 | 0.0 | 0.00 | 0.00 | 0.00 | 74 | 1018.4 |
| 20260507024419 | 5 | 84 | 0.0 | 0.0 | 0.00 | 0.00 | 0.00 | 70 | 1018.7 |
| 20260507023914 | 5 | 84 | 0.0 | 0.0 | 0.00 | 0.00 | 0.00 | 71 | 1018.6 |
| 20260507023411 | 5 | 84 | 0.0 | 0.0 | 0.00 | 0.00 | 0.00 | 71 | 1018.4 |
| 20260507022909 | 5 | 84 | 0.0 | 0.0 | 0.00 | 0.00 | 0.00 | 62 | 1018.6 |
| 20260507022405 | 5 | 84 | 0.0 | 0.0 | 0.00 | 0.00 | 0.00 | 62 | 1018.6 |
| 20260507021901 | 5 | 84 | 0.0 | 0.0 | 0.00 | 0.00 | 0.00 | 60 | 1018.4 |
| 20260507021356 | 5 | 84 | 0.0 | 0.0 | 0.00 | 0.00 | 0.00 | 60 | 1018.4 |
| 20260507020854 | 5 | 83 | 1.6 | 1.6 | 0.00 | 0.00 | 0.00 | 61 | 1018.2 |
| 20260507020351 | 6 | 87 | 0.0 | 0.0 | 0.00 | 0.00 | 0.00 | 56 | 1018.4 |
| 20260507015848 | 6 | 88 | 0.0 | 0.0 | 0.00 | 0.00 | 0.00 | 56 | 1018.4 |
| 20260507015346 | 6 | 92 | 0.0 | 0.0 | 0.00 | 0.00 | 0.00 | 53 | 1018.6 |
| 20260507014843 | 5 | 92 | 0.0 | 0.0 | 0.00 | 0.00 | 0.00 | 54 | 1018.3 |
| 20260507014339 | 6 | 92 | 0.0 | 0.0 | 0.00 | 0.00 | 0.00 | 54 | 1018.4 |
| 20260507013835 | 6 | 92 | 0.0 | 0.0 | 0.00 | 0.00 | 0.00 | 53 | 1018.3 |
| 20260507013333 | 6 | 81 | 0.0 | 0.0 | 0.00 | 0.00 | 0.00 | 57 | 1018.2 |
| 20260507012830 | 6 | 80 | 0.0 | 0.0 | 0.00 | 0.00 | 0.00 | 51 | 1018.3 |
| 20260507012326 | 6 | 59 | 3.2 | 3.2 | 0.00 | 0.00 | 0.00 | 50 | 1018.3 |
| 20260507011823 | 6 | 73 | 0.0 | 0.0 | 0.00 | 0.00 | 0.00 | 49 | 1018.3 |
| 20260507011320 | 6 | 48 | 3.2 | 3.2 | 0.00 | 0.00 | 0.00 | 49 | 1018.2 |
| 20260507010820 | 6 | 73 | 1.6 | 1.6 | 0.00 | 0.00 | 0.00 | 49 | 1018.0 |
| 20260507010315 | 6 | 81 | 1.6 | 1.6 | 0.00 | 0.00 | 0.00 | 48 | 1018.0 |
| 20260507005813 | 7 | 93 | 1.6 | 1.6 | 0.00 | 0.00 | 0.00 | 47 | 1018.1 |
| 20260507005310 | 6 | 71 | 1.6 | 1.6 | 0.00 | 0.00 | 0.00 | 47 | 1018.0 |
| 20260507004806 | 7 | 59 | 1.6 | 1.6 | 0.00 | 0.00 | 0.00 | 47 | 1017.8 |
| 20260507004304 | 7 | 95 | 0.0 | 0.0 | 0.00 | 0.00 | 0.00 | 47 | 1017.9 |
| 20260507003800 | 7 | 345 | 3.2 | 4.8 | 0.00 | 0.00 | 0.00 | 45 | 1018.1 |
| 20260507003255 | 7 | 95 | 1.6 | 1.6 | 0.00 | 0.00 | 0.00 | 44 | 1017.9 |
| 20260507002751 | 7 | 133 | 1.6 | 1.6 | 0.00 | 0.00 | 0.00 | 44 | 1017.6 |
| 20260507002247 | 8 | 78 | 0.0 | 0.0 | 0.00 | 0.00 | 0.00 | 42 | 1017.6 |
| 20260507001745 | 8 | 53 | 4.8 | 6.4 | 0.00 | 0.00 | 0.00 | 42 | 1017.8 |
| 20260507001242 | 8 | 94 | 3.2 | 4.8 | 0.00 | 0.00 | 0.00 | 41 | 1017.8 |
| 20260507000738 | 8 | 239 | 8.0 | 9.7 | 0.00 | 0.00 | 0.00 | 41 | 1017.5 |
| 20260507000234 | 8 | 96 | 3.2 | 3.2 | 0.00 | 0.00 | 0.00 | 41 | 1017.6 |
| 20260506235731 | 8 | 333 | 4.8 | 4.8 | 0.00 | 0.00 | 0.00 | 41 | 1017.5 |
| 20260506235226 | 9 | 327 | 8.0 | 11.3 | 0.00 | 0.00 | 0.00 | 39 | 1017.5 |
| 20260506234723 | 9 | 299 | 9.7 | 12.9 | 0.00 | 0.00 | 0.00 | 39 | 1017.4 |
| 20260506234221 | 9 | 266 | 8.0 | 9.7 | 0.00 | 0.00 | 0.00 | 39 | 1017.7 |
| 20260506233718 | 9 | 344 | 9.7 | 11.3 | 0.00 | 0.00 | 0.00 | 38 | 1017.5 |
| 20260506233215 | 10 | 309 | 12.9 | 14.5 | 0.00 | 0.00 | 0.00 | 37 | 1017.5 |
| 20260506232711 | 10 | 59 | 3.2 | 3.2 | 0.00 | 0.00 | 0.00 | 40 | 1017.2 |
| 20260506232206 | 10 | 276 | 12.9 | 16.1 | 0.00 | 0.00 | 0.00 | 38 | 1017.6 |
| 20260506231704 | 10 | 346 | 6.4 | 4.8 | 0.00 | 0.00 | 0.00 | 39 | 1017.3 |
| 20260506231202 | 10 | 279 | 9.7 | 12.9 | 0.00 | 0.00 | 0.00 | 37 | 1017.4 |
| 20260506230658 | 10 | 44 | 3.2 | 3.2 | 0.00 | 0.00 | 0.00 | 42 | 1017.2 |
| 20260506230155 | 10 | 219 | 4.8 | 6.4 | 0.00 | 0.00 | 0.00 | 40 | 1017.2 |
| 20260506225652 | 10 | 297 | 3.2 | 4.8 | 0.00 | 0.00 | 0.00 | 40 | 1017.4 |
| 20260506225149 | 9 | 206 | 4.8 | 9.7 | 0.00 | 0.00 | 0.00 | 41 | 1017.3 |
| 20260506224645 | 10 | 28 | 4.8 | 6.4 | 0.00 | 0.00 | 0.00 | 40 | 1017.4 |
| 20260506224142 | 10 | 254 | 4.8 | 4.8 | 0.00 | 0.00 | 0.00 | 39 | 1017.4 |
| 20260506223638 | 10 | 103 | 0.0 | 0.0 | 0.00 | 0.00 | 0.00 | 40 | 1017.3 |
| 20260506223134 | 10 | 164 | 3.2 | 4.8 | 0.00 | 0.00 | 0.00 | 42 | 1017.3 |
| 20260506222631 | 10 | 359 | 12.9 | 14.5 | 0.00 | 0.00 | 0.00 | 39 | 1017.3 |
| 20260506222127 | 10 | 249 | 8.0 | 12.9 | 0.00 | 0.00 | 0.00 | 39 | 1017.4 |
| 20260506221625 | 10 | 246 | 11.3 | 12.9 | 0.00 | 0.00 | 0.00 | 39 | 1017.4 |
| 20260506221123 | 10 | 103 | 1.6 | 1.6 | 0.00 | 0.00 | 0.00 | 38 | 1017.3 |
| 20260506220620 | 10 | 137 | 3.2 | 4.8 | 0.00 | 0.00 | 0.00 | 38 | 1017.4 |
| 20260506220115 | 10 | 72 | 3.2 | 3.2 | 0.00 | 0.00 | 0.00 | 38 | 1017.1 |
| 20260506215612 | 10 | 58 | 3.2 | 3.2 | 0.00 | 0.00 | 0.00 | 37 | 1017.1 |
| 20260506215107 | 10 | 210 | 3.2 | 3.2 | 0.00 | 0.00 | 0.00 | 38 | 1017.5 |
| 20260506214604 | 10 | 264 | 3.2 | 4.8 | 0.00 | 0.00 | 0.00 | 38 | 1017.3 |
| 20260506214102 | 10 | 3 | 8.0 | 12.9 | 0.00 | 0.00 | 0.00 | 37 | 1017.1 |
| 20260506213600 | 10 | 302 | 4.8 | 6.4 | 0.00 | 0.00 | 0.00 | 37 | 1017.1 |
| 20260506213057 | 10 | 191 | 4.8 | 6.4 | 0.00 | 0.00 | 0.00 | 37 | 1017.2 |
| 20260506212553 | 10 | 330 | 6.4 | 9.7 | 0.00 | 0.00 | 0.00 | 36 | 1017.0 |
| 20260506212048 | 10 | 291 | 6.4 | 6.4 | 0.00 | 0.00 | 0.00 | 35 | 1017.1 |
| 20260506211544 | 10 | 146 | 1.6 | 1.6 | 0.00 | 0.00 | 0.00 | 35 | 1017.1 |
| 20260506211042 | 11 | 283 | 4.8 | 4.8 | 0.00 | 0.00 | 0.00 | 36 | 1017.1 |
| 20260506210538 | 11 | 81 | 4.8 | 6.4 | 0.00 | 0.00 | 0.00 | 35 | 1017.1 |
| 20260506210035 | 11 | 69 | 1.6 | 1.6 | 0.00 | 0.00 | 0.00 | 34 | 1017.1 |
| 20260506205532 | 11 | 3 | 3.2 | 6.4 | 0.00 | 0.00 | 0.00 | 36 | 1017.1 |
| 20260506205027 | 10 | 320 | 6.4 | 6.4 | 0.00 | 0.00 | 0.00 | 36 | 1017.1 |
| 20260506204525 | 10 | 224 | 6.4 | 9.7 | 0.00 | 0.00 | 0.00 | 35 | 1017.1 |
| 20260506204022 | 10 | 337 | 6.4 | 6.4 | 0.00 | 0.00 | 0.00 | 36 | 1017.3 |
| 20260506203520 | 10 | 179 | 8.0 | 9.7 | 0.00 | 0.00 | 0.00 | 37 | 1017.1 |
| 20260506203016 | 11 | 191 | 4.8 | 4.8 | 0.00 | 0.00 | 0.00 | 35 | 1017.1 |
| 20260506202514 | 11 | 218 | 6.4 | 11.3 | 0.00 | 0.00 | 0.00 | 35 | 1017.4 |
| 20260506202010 | 11 | 236 | 11.3 | 14.5 | 0.00 | 0.00 | 0.00 | 35 | 1017.2 |
| 20260506201508 | 11 | 116 | 1.6 | 1.6 | 0.00 | 0.00 | 0.00 | 34 | 1017.2 |
| 20260506201004 | 11 | 141 | 3.2 | 3.2 | 0.00 | 0.00 | 0.00 | 36 | 1017.3 |
| 20260506200500 | 10 | 248 | 9.7 | 11.3 | 0.00 | 0.00 | 0.00 | 35 | 1017.3 |
| 20260506195956 | 11 | 236 | 9.7 | 11.3 | 0.00 | 0.00 | 0.00 | 34 | 1017.5 |
| 20260506195454 | 11 | 200 | 6.4 | 6.4 | 0.00 | 0.00 | 0.00 | 35 | 1017.1 |
| 20260506194950 | 12 | 243 | 11.3 | 12.9 | 0.00 | 0.00 | 0.00 | 34 | 1017.3 |
| 20260506194448 | 12 | 220 | 4.8 | 6.4 | 0.00 | 0.00 | 0.00 | 32 | 1017.5 |
| 20260506193944 | 11 | 221 | 9.7 | 11.3 | 0.00 | 0.00 | 0.00 | 37 | 1017.5 |
| 20260506193442 | 11 | 112 | 8.0 | 11.3 | 0.00 | 0.00 | 0.00 | 34 | 1017.4 |
| 20260506192938 | 12 | 133 | 3.2 | 3.2 | 0.00 | 0.00 | 0.00 | 31 | 1017.3 |
| 20260506192435 | 12 | 226 | 20.9 | 25.7 | 0.00 | 0.00 | 0.00 | 33 | 1017.1 |
| 20260506191932 | 12 | 309 | 11.3 | 12.9 | 0.00 | 0.00 | 0.00 | 31 | 1017.3 |
| 20260506191428 | 11 | 223 | 16.1 | 16.1 | 0.00 | 0.00 | 0.00 | 35 | 1017.4 |
| 20260506190925 | 10 | 139 | 3.2 | 3.2 | 0.00 | 0.00 | 0.00 | 37 | 1017.4 |
| 20260506190422 | 11 | 208 | 6.4 | 6.4 | 0.00 | 0.00 | 0.00 | 37 | 1017.4 |
| 20260506185919 | 11 | 183 | 3.2 | 4.8 | 0.00 | 0.00 | 0.00 | 34 | 1017.3 |
| 20260506185416 | 11 | 276 | 9.7 | 12.9 | 0.00 | 0.00 | 0.00 | 32 | 1017.1 |
| 20260506184913 | 10 | 126 | 6.4 | 9.7 | 0.00 | 0.00 | 0.00 | 37 | 1017.4 |
| 20260506184410 | 10 | 301 | 3.2 | 4.8 | 0.00 | 0.00 | 0.00 | 36 | 1017.3 |
| 20260506183907 | 11 | 203 | 3.2 | 3.2 | 0.00 | 0.00 | 0.00 | 34 | 1017.2 |
| 20260506183402 | 11 | 210 | 6.4 | 4.8 | 0.00 | 0.00 | 0.00 | 34 | 1017.4 |
| 20260506182900 | 10 | 334 | 6.4 | 6.4 | 0.00 | 0.00 | 0.00 | 40 | 1017.3 |
| 20260506182357 | 11 | 190 | 4.8 | 6.4 | 0.00 | 0.00 | 0.00 | 37 | 1017.3 |
| 20260506181854 | 10 | 209 | 6.4 | 9.7 | 0.00 | 0.00 | 0.00 | 39 | 1017.7 |
| 20260506181352 | 10 | 225 | 9.7 | 12.9 | 0.00 | 0.00 | 0.00 | 42 | 1017.7 |
| 20260506180849 | 9 | 257 | 8.0 | 9.7 | 0.00 | 0.00 | 0.00 | 41 | 1017.5 |
| 20260506180345 | 10 | 233 | 6.4 | 9.7 | 0.00 | 0.00 | 0.00 | 40 | 1017.6 |
| 20260506175841 | 10 | 185 | 3.2 | 3.2 | 0.00 | 0.00 | 0.00 | 39 | 1017.6 |
| 20260506175338 | 10 | 119 | 6.4 | 9.7 | 0.00 | 0.00 | 0.00 | 38 | 1017.6 |
| 20260506174835 | 10 | 249 | 4.8 | 4.8 | 0.00 | 0.00 | 0.00 | 36 | 1017.9 |
| 20260506174333 | 10 | 210 | 8.0 | 9.7 | 0.00 | 0.00 | 0.00 | 40 | 1018.0 |
| 20260506173830 | 10 | 225 | 11.3 | 12.9 | 0.00 | 0.00 | 0.00 | 39 | 1017.9 |
| 20260506173327 | 10 | 257 | 9.7 | 14.5 | 0.00 | 0.00 | 0.00 | 39 | 1017.8 |
| 20260506172824 | 9 | 292 | 6.4 | 6.4 | 0.00 | 0.00 | 0.00 | 40 | 1018.1 |
| 20260506172321 | 10 | 303 | 8.0 | 6.4 | 0.00 | 0.00 | 0.00 | 41 | 1017.9 |
| 20260506171818 | 10 | 244 | 6.4 | 9.7 | 0.00 | 0.00 | 0.00 | 37 | 1017.9 |
| 20260506171315 | 10 | 140 | 3.2 | 3.2 | 0.00 | 0.00 | 0.00 | 38 | 1018.1 |
| 20260506170813 | 10 | 227 | 9.7 | 11.3 | 0.00 | 0.00 | 0.00 | 37 | 1017.8 |
| 20260506170308 | 10 | 213 | 4.8 | 4.8 | 0.00 | 0.00 | 0.00 | 39 | 1018.0 |
| 20260506165808 | 10 | 220 | 14.5 | 16.1 | 0.00 | 0.00 | 0.00 | 39 | 1018.1 |
| 20260506165306 | 10 | 325 | 4.8 | 4.8 | 0.00 | 0.00 | 0.00 | 39 | 1018.1 |
| 20260506164801 | 10 | 191 | 3.2 | 4.8 | 0.00 | 0.00 | 0.00 | 37 | 1018.0 |
| 20260506164258 | 10 | 174 | 4.8 | 4.8 | 0.00 | 0.00 | 0.00 | 39 | 1017.9 |
| 20260506163755 | 10 | 277 | 9.7 | 11.3 | 0.00 | 0.00 | 0.00 | 38 | 1018.0 |
| 20260506163250 | 9 | 128 | 4.8 | 4.8 | 0.00 | 0.00 | 0.00 | 38 | 1018.2 |
| 20260506162746 | 9 | 342 | 3.2 | 3.2 | 0.00 | 0.00 | 0.00 | 39 | 1018.2 |
| 20260506162244 | 10 | 93 | 1.6 | 1.6 | 0.00 | 0.00 | 0.00 | 37 | 1018.2 |
| 20260506161741 | 9 | 123 | 1.6 | 3.2 | 0.00 | 0.00 | 0.00 | 40 | 1018.1 |
| 20260506161238 | 9 | 243 | 3.2 | 3.2 | 0.00 | 0.00 | 0.00 | 39 | 1018.3 |
| 20260506160736 | 10 | 322 | 6.4 | 6.4 | 0.00 | 0.00 | 0.00 | 39 | 1018.3 |
| 20260506160232 | 11 | 251 | 9.7 | 9.7 | 0.00 | 0.00 | 0.00 | 36 | 1018.0 |
| 20260506155731 | 11 | 102 | 3.2 | 4.8 | 0.00 | 0.00 | 0.00 | 39 | 1018.2 |
| 20260506155227 | 10 | 294 | 9.7 | 12.9 | 0.00 | 0.00 | 0.00 | 36 | 1018.1 |
| 20260506153335 | 8 | 251 | 9.7 | 11.3 | 0.00 | 0.00 | 0.00 | 41 | 1018.0 |
| 20260506152831 | 9 | 221 | 9.7 | 11.3 | 0.00 | 0.00 | 0.00 | 43 | 1017.9 |
| 20260506152329 | 10 | 213 | 9.7 | 12.9 | 0.00 | 0.00 | 0.00 | 45 | 1018.0 |
| 20260506151827 | 10 | 181 | 6.4 | 9.7 | 0.00 | 0.00 | 0.00 | 41 | 1018.1 |
| 20260506151323 | 10 | 231 | 4.8 | 4.8 | 0.00 | 0.00 | 0.00 | 42 | 1018.1 |
| 20260506150821 | 8 | 248 | 6.4 | 6.4 | 0.00 | 0.00 | 0.00 | 44 | 1018.1 |
| 20260506150318 | 8 | 198 | 11.3 | 12.9 | 0.00 | 0.00 | 0.00 | 46 | 1018.2 |
| 20260506145814 | 8 | 114 | 4.8 | 4.8 | 0.00 | 0.00 | 0.00 | 46 | 1018.0 |
| 20260506145311 | 8 | 188 | 8.0 | 11.3 | 0.00 | 0.00 | 0.00 | 44 | 1017.9 |
| 20260506144808 | 8 | 126 | 1.6 | 1.6 | 0.00 | 0.00 | 0.00 | 44 | 1018.1 |
| 20260506144305 | 7 | 150 | 9.7 | 9.7 | 0.00 | 0.00 | 0.00 | 48 | 1018.2 |
| 20260506143803 | 7 | 128 | 8.0 | 6.4 | 0.00 | 0.00 | 0.00 | 48 | 1018.2 |
| 20260506143300 | 7 | 161 | 4.8 | 4.8 | 0.00 | 0.00 | 0.00 | 48 | 1017.9 |